Time,TemperatureF,DewpointF,PressureIn,WindDirection,WindDirectionDegrees,WindSpeedMPH,WindSpeedGustMPH,Humidity,HourlyPrecipIn,Conditions,Clouds,dailyrainin,SoftwareType,DateUTC
2013-07-19 00:11:00,75.9,65.8,29.98,SSE,157,3.7,-999.0,71,-99.99,,,0.00,Acu-Link.com,2013-07-19 05:11:00,
2013-07-19 00:26:00,76.1,65.6,29.98,SE,135,4.2,-999.0,70,-99.99,,,0.00,Acu-Link.com,2013-07-19 05:26:00,
2013-07-19 00:41:00,76.3,65.8,29.98,South,180,4.7,-999.0,70,-99.99,,,0.00,Acu-Link.com,2013-07-19 05:41:00,
2013-07-19 00:57:00,76.1,65.6,29.97,SE,135,4.7,-999.0,70,-99.99,,,0.00,Acu-Link.com,2013-07-19 05:57:00,
2013-07-19 01:12:00,75.7,65.2,29.97,SSE,157,4.7,-999.0,70,-99.99,,,0.00,Acu-Link.com,2013-07-19 06:12:00,
2013-07-19 01:27:00,75.4,65.3,29.97,SW,225,2.2,-999.0,71,-99.99,,,0.00,Acu-Link.com,2013-07-19 06:27:00,
2013-07-19 01:42:00,74.7,65.1,29.97,SSE,157,2.7,-999.0,72,-99.99,,,0.00,Acu-Link.com,2013-07-19 06:42:00,
2013-07-19 01:58:00,74.1,64.9,29.98,SE,135,1.1,-999.0,73,-99.99,,,0.00,Acu-Link.com,2013-07-19 06:58:00,
2013-07-19 02:13:00,74.1,64.9,29.97,ESE,112,2.7,-999.0,73,-99.99,,,0.00,Acu-Link.com,2013-07-19 07:13:00,
2013-07-19 02:28:00,73.6,64.8,29.97,SE,135,0.0,-999.0,74,-99.99,,,0.00,Acu-Link.com,2013-07-19 07:28:00,
2013-07-19 02:44:00,73.0,64.6,29.97,SSE,157,0.0,-999.0,75,-99.99,,,0.00,Acu-Link.com,2013-07-19 07:44:00,
2013-07-19 02:59:00,72.9,64.5,29.97,ESE,112,4.2,-999.0,75,-99.99,,,0.00,Acu-Link.com,2013-07-19 07:59:00,
2013-07-19 03:14:00,73.0,64.6,29.97,SE,135,2.2,-999.0,75,-99.99,,,0.00,Acu-Link.com,2013-07-19 08:14:00,
2013-07-19 03:29:00,72.9,64.5,29.97,SE,135,1.1,-999.0,75,-99.99,,,0.00,Acu-Link.com,2013-07-19 08:29:00,
2013-07-19 03:44:00,72.7,64.7,29.97,SE,135,1.1,-999.0,76,-99.99,,,0.00,Acu-Link.com,2013-07-19 08:44:00,
2013-07-19 04:00:00,72.3,64.7,29.96,South,180,1.7,-999.0,77,-99.99,,,0.00,Acu-Link.com,2013-07-19 09:00:00,
2013-07-19 04:15:00,72.1,64.5,29.96,East,90,0.0,-999.0,77,-99.99,,,0.00,Acu-Link.com,2013-07-19 09:15:00,
2013-07-19 04:45:00,71.1,64.2,29.95,ENE,67,0.0,-999.0,79,-99.99,,,0.00,Acu-Link.com,2013-07-19 09:45:00,
2013-07-19 05:00:00,70.7,64.2,29.95,West,270,0.0,-999.0,80,-99.99,,,0.00,Acu-Link.com,2013-07-19 10:00:00,
2013-07-19 05:15:00,70.5,64.4,29.95,South,180,0.0,-999.0,81,-99.99,,,0.00,Acu-Link.com,2013-07-19 10:15:00,
2013-07-19 05:31:00,70.2,64.1,29.96,ESE,112,0.0,-999.0,81,-99.99,,,0.00,Acu-Link.com,2013-07-19 10:31:00,
2013-07-19 05:46:00,69.4,64.0,29.95,ESE,112,0.0,-999.0,83,-99.99,,,0.00,Acu-Link.com,2013-07-19 10:46:00,
2013-07-19 06:02:00,68.9,63.9,29.96,SSE,157,0.0,-999.0,84,-99.99,,,0.00,Acu-Link.com,2013-07-19 11:02:00,
2013-07-19 06:17:00,68.5,63.8,29.96,SSW,202,0.0,-999.0,85,-99.99,,,0.00,Acu-Link.com,2013-07-19 11:17:00,
2013-07-19 06:32:00,68.7,64.0,29.96,East,90,0.0,-999.0,85,-99.99,,,0.00,Acu-Link.com,2013-07-19 11:32:00,
2013-07-19 06:47:00,70.3,64.9,29.97,SSW,202,0.0,-999.0,83,-99.99,,,0.00,Acu-Link.com,2013-07-19 11:47:00,
2013-07-19 07:02:00,72.5,66.0,29.97,ESE,112,0.0,-999.0,80,-99.99,,,0.00,Acu-Link.com,2013-07-19 12:02:00,
2013-07-19 07:18:00,74.5,66.4,29.97,ESE,112,0.0,-999.0,76,-99.99,,,0.00,Acu-Link.com,2013-07-19 12:18:00,
2013-07-19 07:33:00,75.9,67.0,29.97,SSE,157,0.0,-999.0,74,-99.99,,,0.00,Acu-Link.com,2013-07-19 12:33:00,
2013-07-19 07:48:00,77.5,67.3,29.97,SE,135,0.0,-999.0,71,-99.99,,,0.00,Acu-Link.com,2013-07-19 12:48:00,
2013-07-19 08:03:00,78.6,68.0,29.97,SSE,157,0.0,-999.0,70,-99.99,,,0.00,Acu-Link.com,2013-07-19 13:03:00,
2013-07-19 08:19:00,79.9,68.4,29.96,SE,135,0.0,-999.0,68,-99.99,,,0.00,Acu-Link.com,2013-07-19 13:19:00,
2013-07-19 08:34:00,81.0,68.5,29.96,South,180,0.0,-999.0,66,-99.99,,,0.00,Acu-Link.com,2013-07-19 13:34:00,
2013-07-19 08:49:00,82.4,69.4,29.97,WSW,247,0.0,-999.0,65,-99.99,,,0.00,Acu-Link.com,2013-07-19 13:49:00,
2013-07-19 09:05:00,82.6,69.2,29.97,West,270,2.2,-999.0,64,-99.99,,,0.00,Acu-Link.com,2013-07-19 14:05:00,
2013-07-19 09:20:00,84.6,70.1,29.97,North,0,2.7,-999.0,62,-99.99,,,0.00,Acu-Link.com,2013-07-19 14:20:00,
2013-07-19 09:35:00,82.8,69.4,29.96,West,270,2.2,-999.0,64,-99.99,,,0.00,Acu-Link.com,2013-07-19 14:35:00,
2013-07-19 09:50:00,84.6,70.6,29.96,West,270,1.7,-999.0,63,-99.99,,,0.00,Acu-Link.com,2013-07-19 14:50:00,
2013-07-19 10:05:00,85.1,70.6,29.97,West,270,4.2,-999.0,62,-99.99,,,0.00,Acu-Link.com,2013-07-19 15:05:00,
2013-07-19 10:21:00,86.7,71.6,29.96,SE,135,2.7,-999.0,61,-99.99,,,0.00,Acu-Link.com,2013-07-19 15:21:00,
2013-07-19 10:36:00,88.0,71.3,29.96,NNW,337,6.3,-999.0,58,-99.99,,,0.00,Acu-Link.com,2013-07-19 15:36:00,
2013-07-19 10:51:00,88.2,72.0,29.96,WSW,247,3.7,-999.0,59,-99.99,,,0.00,Acu-Link.com,2013-07-19 15:51:00,
2013-07-19 11:06:00,88.9,71.1,29.96,WNW,292,7.3,-999.0,56,-99.99,,,0.00,Acu-Link.com,2013-07-19 16:06:00,
2013-07-19 11:22:00,89.1,71.8,29.96,SSW,202,2.2,-999.0,57,-99.99,,,0.00,Acu-Link.com,2013-07-19 16:22:00,
2013-07-19 11:37:00,90.9,71.9,29.96,NW,315,6.3,-999.0,54,-99.99,,,0.00,Acu-Link.com,2013-07-19 16:37:00,
2013-07-19 11:52:00,91.6,72.0,29.94,WNW,292,6.8,-999.0,53,-99.99,,,0.00,Acu-Link.com,2013-07-19 16:52:00,
2013-07-19 12:07:00,91.2,71.1,29.94,West,270,2.2,-999.0,52,-99.99,,,0.00,Acu-Link.com,2013-07-19 17:07:00,
2013-07-19 12:22:00,92.3,72.7,29.94,West,270,4.7,-999.0,53,-99.99,,,0.00,Acu-Link.com,2013-07-19 17:22:00,
2013-07-19 12:38:00,92.5,72.8,29.93,WNW,292,3.7,-999.0,53,-99.99,,,0.00,Acu-Link.com,2013-07-19 17:38:00,
2013-07-19 12:53:00,93.6,72.7,29.93,WNW,292,6.3,-999.0,51,-99.99,,,0.00,Acu-Link.com,2013-07-19 17:53:00,
2013-07-19 13:08:00,93.0,70.4,29.92,NNW,337,5.8,-999.0,48,-99.99,,,0.00,Acu-Link.com,2013-07-19 18:08:00,
2013-07-19 13:23:00,92.8,71.4,29.91,WSW,247,4.7,-999.0,50,-99.99,,,0.00,Acu-Link.com,2013-07-19 18:23:00,
2013-07-19 13:39:00,93.0,71.0,29.90,West,270,2.7,-999.0,49,-99.99,,,0.00,Acu-Link.com,2013-07-19 18:39:00,
2013-07-19 13:54:00,93.2,71.7,29.89,West,270,1.1,-999.0,50,-99.99,,,0.00,Acu-Link.com,2013-07-19 18:54:00,
2013-07-19 14:09:00,93.6,69.7,29.88,West,270,2.2,-999.0,46,-99.99,,,0.00,Acu-Link.com,2013-07-19 19:09:00,
2013-07-19 14:24:00,95.0,72.2,29.88,WSW,247,3.2,-999.0,48,-99.99,,,0.00,Acu-Link.com,2013-07-19 19:24:00,
2013-07-19 14:39:00,94.6,70.6,29.87,SW,225,4.2,-999.0,46,-99.99,,,0.00,Acu-Link.com,2013-07-19 19:39:00,
2013-07-19 14:54:00,95.9,71.1,29.87,West,270,5.3,-999.0,45,-99.99,,,0.00,Acu-Link.com,2013-07-19 19:54:00,
2013-07-19 15:09:00,94.8,70.1,29.86,NE,45,0.0,-999.0,45,-99.99,,,0.00,Acu-Link.com,2013-07-19 20:09:00,
2013-07-19 15:24:00,95.9,70.4,29.86,WSW,247,4.7,-999.0,44,-99.99,,,0.00,Acu-Link.com,2013-07-19 20:24:00,
2013-07-19 15:40:00,96.6,69.7,29.87,West,270,6.8,-999.0,42,-99.99,,,0.00,Acu-Link.com,2013-07-19 20:40:00,
2013-07-19 15:55:00,96.6,70.4,29.85,SW,225,2.7,-999.0,43,-99.99,,,0.00,Acu-Link.com,2013-07-19 20:55:00,
2013-07-19 16:10:00,95.2,69.8,29.85,West,270,7.3,-999.0,44,-99.99,,,0.00,Acu-Link.com,2013-07-19 21:10:00,
2013-07-19 16:25:00,94.6,69.3,29.85,WSW,247,2.2,-999.0,44,-99.99,,,0.00,Acu-Link.com,2013-07-19 21:25:00,
2013-07-19 16:41:00,95.7,70.2,29.86,WSW,247,0.0,-999.0,44,-99.99,,,0.00,Acu-Link.com,2013-07-19 21:41:00,
2013-07-19 16:56:00,94.5,69.2,29.85,West,270,3.7,-999.0,44,-99.99,,,0.00,Acu-Link.com,2013-07-19 21:56:00,
2013-07-19 17:11:00,94.8,69.4,29.85,West,270,1.1,-999.0,44,-99.99,,,0.00,Acu-Link.com,2013-07-19 22:11:00,
2013-07-19 17:26:00,94.1,70.1,29.84,NW,315,0.0,-999.0,46,-99.99,,,0.00,Acu-Link.com,2013-07-19 22:26:00,
2013-07-19 17:41:00,94.6,71.8,29.83,South,180,2.2,-999.0,48,-99.99,,,0.00,Acu-Link.com,2013-07-19 22:41:00,
2013-07-19 17:57:00,86.0,69.0,29.84,South,180,5.8,-999.0,57,-99.99,,,0.00,Acu-Link.com,2013-07-19 22:57:00,
2013-07-19 18:12:00,85.6,69.1,29.84,SSE,157,6.8,-999.0,58,-99.99,,,0.00,Acu-Link.com,2013-07-19 23:12:00,
2013-07-19 18:27:00,84.7,68.3,29.85,South,180,4.2,-999.0,58,-99.99,,,0.00,Acu-Link.com,2013-07-19 23:27:00,
2013-07-19 18:42:00,84.6,68.2,29.84,ESE,112,4.7,-999.0,58,-99.99,,,0.00,Acu-Link.com,2013-07-19 23:42:00,
2013-07-19 18:58:00,84.4,68.5,29.85,South,180,5.3,-999.0,59,-99.99,,,0.00,Acu-Link.com,2013-07-19 23:58:00,
2013-07-19 19:13:00,83.8,68.4,29.86,South,180,3.7,-999.0,60,-99.99,,,0.00,Acu-Link.com,2013-07-20 00:13:00,
2013-07-19 19:28:00,84.2,68.8,29.86,South,180,4.7,-999.0,60,-99.99,,,0.00,Acu-Link.com,2013-07-20 00:28:00,
2013-07-19 19:43:00,84.0,68.6,29.85,South,180,4.2,-999.0,60,-99.99,,,0.00,Acu-Link.com,2013-07-20 00:43:00,
2013-07-19 19:58:00,83.5,68.1,29.85,SE,135,1.7,-999.0,60,-99.99,,,0.00,Acu-Link.com,2013-07-20 00:58:00,
2013-07-19 20:13:00,82.2,67.4,29.84,SSE,157,4.2,-999.0,61,-99.99,,,0.00,Acu-Link.com,2013-07-20 01:13:00,
2013-07-19 20:28:00,80.8,66.5,29.86,NW,315,0.0,-999.0,62,-99.99,,,0.00,Acu-Link.com,2013-07-20 01:28:00,
2013-07-19 20:44:00,79.7,65.5,29.86,West,270,2.7,-999.0,62,-99.99,,,0.00,Acu-Link.com,2013-07-20 01:44:00,
2013-07-19 20:59:00,78.8,65.6,29.86,WSW,247,2.2,-999.0,64,-99.99,,,0.00,Acu-Link.com,2013-07-20 01:59:00,
2013-07-19 21:14:00,78.1,65.4,29.86,SSW,202,1.7,-999.0,65,-99.99,,,0.00,Acu-Link.com,2013-07-20 02:14:00,
2013-07-19 21:30:00,77.5,65.2,29.85,SE,135,1.1,-999.0,66,-99.99,,,0.00,Acu-Link.com,2013-07-20 02:30:00,
2013-07-19 21:45:00,77.0,65.2,29.86,SSE,157,0.0,-999.0,67,-99.99,,,0.00,Acu-Link.com,2013-07-20 02:45:00,
2013-07-19 22:00:00,76.5,64.7,29.87,SSE,157,0.0,-999.0,67,-99.99,,,0.00,Acu-Link.com,2013-07-20 03:00:00,
2013-07-19 22:15:00,75.9,65.0,29.87,SE,135,2.7,-999.0,69,-99.99,,,0.00,Acu-Link.com,2013-07-20 03:15:00,
2013-07-19 22:31:00,75.4,64.5,29.88,ESE,112,0.0,-999.0,69,-99.99,,,0.00,Acu-Link.com,2013-07-20 03:31:00,
2013-07-19 22:46:00,75.2,64.7,29.88,SE,135,1.7,-999.0,70,-99.99,,,0.00,Acu-Link.com,2013-07-20 03:46:00,
2013-07-19 23:01:00,75.2,65.1,29.89,South,180,4.7,-999.0,71,-99.99,,,0.00,Acu-Link.com,2013-07-20 04:01:00,
2013-07-19 23:17:00,74.7,65.1,29.89,South,180,2.7,-999.0,72,-99.99,,,0.00,Acu-Link.com,2013-07-20 04:17:00,
2013-07-19 23:32:00,74.3,65.1,29.88,SE,135,2.7,-999.0,73,-99.99,,,0.00,Acu-Link.com,2013-07-20 04:32:00,
2013-07-19 23:47:00,73.9,65.1,29.89,WNW,292,0.0,-999.0,74,-99.99,,,0.00,Acu-Link.com,2013-07-20 04:47:00,